COSMOS 2513

Last updated on Nov. 19, 2019, 4:25 a.m. UTC

1 41121U 15075A   19322.51988544 -.00000134  00000-0  10000-3 0  9991
2 41121   0.0554 109.1392 0003153 151.8797  63.6936  1.00270872 14500
UTC
Height (km)
Latitude
Longitude
Inclination
Orbital Period
UTC large
Height (km)
Speed (km/s)
/
Latitude / Longitude
Inclination (degrees)
Orbital Period (minutes)
Azimuth
Elevation
Range (km)
Doppler Factor
iOS Compass Heading
iOS Angle

Next 30 passes for location: Hong Kong

Rise time Rise Azimuth (degrees) Set time Set Azimuth (degrees) Duration Max altitude (degrees)

No matching passes for this satellites